Regional Weather Roundup
Issued by NWS

Home | Current Version | Previous Version | Graphics & Text | Print | Product List | Glossary On
Versions: 1 2 3 4 5 6 7 8 9 10 11 12 13 14 15 16 17 18 19 20 21 22 23 24 25 26 27 28 29 30 31 32 33 34 35 36 37 38 39 40 41 42 43 44 45 46 47 48 49 50
000
ASUS43 KLMK 071902
RWRKY
KENTUCKY REGIONAL WEATHER ROUNDUP
NATIONAL WEATHER SERVICE LOUISVILLE KY
200 PM EST WED DEC 07 2016

NOTE "FAIR" INDICATES FEW OR NO CLOUDS BELOW 12,000 FEET
WITH NO SIGNIFICANT WEATHER AND/OR OBSTRUCTIONS TO VISIBILITY.

KYZ001>023-026-027-061>063-070>075-072000-
WESTERN AND SOUTH CENTRAL KENTUCKY

CITY           SKY/WX    TMP DP  RH WIND       PRES   REMARKS
PADUCAH        SUNNY     45  22  40 NE5       30.18F
HENDERSON      CLOUDY    41  19  42 CALM      30.18F
OWENSBORO      SUNNY     41  24  51 N7        30.18F
HOPKINSVILLE   SUNNY     44  26  49 N8        30.14F
BOWLING GREEN  MOSUNNY   48  28  46 VRB5      30.13F
GLASGOW        NOT AVBL
$$

KYZ024-025-028>034-038-045-046-053-072000-
NORTH CENTRAL KENTUCKY

CITY           SKY/WX    TMP DP  RH WIND       PRES   REMARKS
LOUISVILLE/SDF CLOUDY    42  21  43 NW5       30.15F
LOUISVILLE/LOU CLOUDY    41  22  46 N5        30.15F
FORT KNOX      CLOUDY    42  25  50 NW6       30.12F
$$

KYZ035>037-039>044-047>052-055>060-089>105-072000-
NORTHEAST KENTUCKY

CITY           SKY/WX    TMP DP  RH WIND       PRES   REMARKS
LEXINGTON      CLOUDY    43  21  41 SW3       30.12F
COVINGTON      CLOUDY    39  22  50 W10       30.12S WCI  32
FRANKFORT      PTSUNNY   43  24  47 NW3       30.12F
$$

KYZ054-064>069-076>088-106>120-072000-
SOUTHEAST KENTUCKY

CITY           SKY/WX    TMP DP  RH WIND       PRES   REMARKS
JACKSON        SUNNY     45  27  49 CALM      30.09F
LONDON         SUNNY     44  30  57 CALM      30.09F
SOMERSET       NOT AVBL
MIDDLESBORO    MOSUNNY   47  37  67 N7        30.07F
MONTICELLO     CLOUDY    45  32  60 N14       30.12F
$$





USA.gov is the U.S. government's official web portal to all federal, state and local government web resources and services.